Home   Weather   Sevierville   Past weeks

Flag for USA Past Weather in Sevierville, Tennessee, USA — Yesterday and Last 2 Weeks

Now
24 °F

Passing clouds.


Feels Like: 18 °F
Forecast: 16 / 54 °F
Wind: 5 mph from Northwest

Location: McGhee Tyson Airport

Current Time: Dec 11, 2016 at 6:51:41 am

Latest Report: Dec 11, 2016 at 5:53 am


Visibility: 10 mi

Pressure: 30.38 "Hg

Humidity: 75%

Dew Point: 17 °F

Location of SeviervilleLocation

Past Weather in Sevierville — Graph

°F

Sevierville Temperature Yesterday

Maximum temperature yesterday: 41 °F (at 3:53 pm)
Minimum temperature yesterday: 19 °F (at 6:53 am)
Average temperature yesterday: 29 °F

High & Low Weather Summary for the Past Weeks

 TemperatureHumidityPressure
High73 °F (Nov 29, 3:53 pm)97% (Dec 4, 9:53 pm)30.61 "Hg (Dec 4, 9:53 pm)
Low19 °F (Dec 10, 6:53 am)29% (Dec 10, 3:53 pm)29.59 "Hg (Nov 28, 11:53 pm)
Average44 °F70%30.10 "Hg
* Reported Nov 26 4:53 am — Dec 11 4:53 am, Sevierville, Weather by CustomWeather, © 2016

Note: Actual official high and low records may vary slightly from our data, if they occured in-between our weather recording intervals... More about our weather records

Advertising

Sevierville Weather History for the Previous 24 Hours

Scroll right to see more
 ConditionsComfort  
Time TempWeatherWind HumidityBarometerVisibility
4:53 am
Sun, Dec 11
23 °FPassing clouds.No wind81%30.38 "Hg10 mi
3:53 am24 °FPassing clouds.No wind75%30.38 "Hg10 mi
2:53 am25 °FPassing clouds.3 mph75%30.40 "Hg10 mi
1:53 am26 °FClear.3 mph69%30.40 "Hg10 mi
12:53 am26 °FClear.No wind71%30.41 "Hg10 mi
11:53 pm
Sat, Dec 10
28 °FClear.No wind58%30.42 "Hg10 mi
10:53 pm29 °FClear.No wind56%30.44 "Hg10 mi
9:53 pm31 °FClear.No wind49%30.43 "Hg10 mi
8:53 pm31 °FClear.3 mph49%30.45 "Hg10 mi
7:53 pm32 °FClear.5 mph47%30.45 "Hg10 mi
6:53 pm33 °FClear.6 mph43%30.47 "Hg10 mi
5:53 pm37 °FClear.3 mph33%30.46 "Hg10 mi
4:53 pm39 °FPassing clouds.6 mph33%30.46 "Hg10 mi
3:53 pm41 °FScattered clouds.3 mph29%30.46 "Hg10 mi
2:53 pm40 °FPassing clouds.6 mph35%30.47 "Hg10 mi
1:53 pm39 °FChilly.N/A30%N/AN/A
12:53 pm36 °FScattered clouds.No wind38%30.54 "Hg10 mi
11:53 am33 °FPassing clouds.5 mph52%30.58 "Hg10 mi
10:53 am32 °FPassing clouds.5 mph54%30.61 "Hg10 mi
9:53 am28 °FSunny.No wind69%30.61 "Hg10 mi
8:53 am23 °FSunny.No wind81%30.60 "Hg10 mi
7:53 am20 °FSunny.3 mph82%30.59 "Hg10 mi
6:53 am19 °FClear.3 mph85%30.58 "Hg10 mi
Weather by CustomWeather, © 2016

See weather overviewHow to use our weather pages